STARLINK-5907, 56021

Orbit data source: Space-Track

STARLINK-5907, 56021 is a payload satellite owned by SpaceX/Seattle (US) in LEO that was launched on Fri, 24 Mar 2023 UTC via an FALCON 9 launch vehicle from the Air Force Eastern Test Range (AFETR). Payload-class satellites include a variety of spacecraft equipped with specific instruments for various scientific and technological missions. These include communications satellites like Starlink; space stations such as the ISS; scientific satellites like the Hubble; Earth observation satellites from companies like Planet Labs, Umbra, and HawkEye 360; GPS; miniature CubeSats for education and research; and military/defense satellites.

Loading next visibility...
Identifier
56021, 2023-042AM
Orbit
LEO
Country
Flag of USUS
Related business
Manufacturer
SpaceX/Seattle
Mission
Operational Commercial Communications
Bus & Motor
STARLINK, Unknown motor
Mass
305 kg wet, ~290 kg dry
Launch date (UTC)
2023-03-24 (3 years ago)
Launch vehicle
FALCON 9
Launch site
Air Force Eastern Test Range (AFETR)
Object type
Payload
Rocket body
Debris
Shape & HBR
Box + 1 Pan, 10.1 m
Radar Cross Section
11.087 m², Large (>1 m²)

Expand to show TLE details & history
Last TLE update: 2 days ago

TLE from 2 days ago
0 STARLINK-5907
1 56021U 23042AM  26171.34659905  .00000740  00000-0  36404-4 0  9995
2 56021  43.0003 185.6390 0000771  17.4856 342.6022 15.27577629178730
Epoch: 2026-06-20T08:19Z
TLE epoch observation values (Epoch: 2026-06-20T08:19:06.157Z)
Latitude
-0.00004°
Longitude
152.30076°
Altitude
482.327 km
Speed
7.626 km/s
True Right ascension
12h 22m 33s
True Declination
0° 00' 00"
Sunlit
Object was in daylight at epoch
Visualization orbit readout
Latitude
Unknown
Longitude
Unknown
Altitude
Unknown
Speed
Unknown
Apparent Right ascension
Unknown
Apparent Declination
Unknown
Sunlit
N/A
Visualization observer readout
Local Sidereal Time
21:31:42
Azimuth
Unknown
Elevation
Unknown
Doppler factor
Unknown
Orbital elements
Apogee altitude
485.53 km
Perigee altitude
484.472 km
Semi-major axis
6,863.138 km
Eccentricity
0.00008
Inclination
43.0003°
RAAN
185.639°
Arg. of periapsis
17.4856°
True anomaly
342.59956°
Mean anomaly
342.6022°
Eccentric anomaly
342.60088°
Mean motion
3.81732 °/min
Orbital period
94.31 mins
BSTAR
0.000036404
Loading maneuver chart data...
Computing Atmospheric mass density...
Loading historical data...
Loading historical data...
Loading historical data...
Loading historical data...
Loading historical data...
Loading historical data...
Loading historical data...

Documentation

Showing up to 5 results
|